This is the latest recevied weather packets stored in our database for station/object WO5CID. If no packets are shown the sender has not sent any weather packets the latest 10 day(s).
| Time | Temp. | Humidity | Pressure | Rain* | Wind** | Luminosity | Snow |
|---|---|---|---|---|---|---|---|
| 1777553733 | 23.33° C | 84% | 1011.7 hPa | 0 mm | - | 94 W/m² | - |
| 1777553431 | 23.33° C | 83% | 1011.3 hPa | 0 mm | - | 106 W/m² | - |
| 1777553127 | 23.33° C | 84% | 1011.5 hPa | 0 mm | - | 130 W/m² | - |
| 1777552827 | 23.33° C | 84% | 1011.4 hPa | 0 mm | - | 129 W/m² | - |
| 1777552522 | 23.33° C | 86% | 1011.3 hPa | 0 mm | - | 164 W/m² | - |
| 1777552219 | 22.78° C | 86% | 1011.4 hPa | 0 mm | - | 156 W/m² | - |
| 1777551916 | 22.78° C | 87% | 1011.4 hPa | 0 mm | - | 113 W/m² | - |
| 1777551613 | 22.22° C | 87% | 1011.7 hPa | 0 mm | - | 99 W/m² | - |
| 1777551311 | 22.22° C | 87% | 1011.5 hPa | 0 mm | - | 70 W/m² | - |
| 1777551007 | 22.22° C | 88% | 1011.5 hPa | 0 mm | - | 52 W/m² | - |
| 1777550704 | 22.22° C | 88% | 1011.5 hPa | 0 mm | - | 58 W/m² | - |
| 1777550400 | 22.22° C | 88% | 1011.4 hPa | 0 mm | - | 67 W/m² | - |
| 1777550096 | 22.22° C | 89% | 1011.6 hPa | 0 mm | - | 69 W/m² | - |
| 1777549793 | 21.67° C | 89% | 1011.3 hPa | 0 mm | - | 51 W/m² | - |
| 1777549489 | 21.67° C | 90% | 1011.3 hPa | 0 mm | - | 42 W/m² | - |
| 1777549185 | 21.67° C | 90% | 1011.1 hPa | 0 mm | - | 33 W/m² | - |
| 1777548882 | 21.67° C | 90% | 1011.5 hPa | 0 mm | - | 24 W/m² | - |
| 1777548578 | 21.67° C | 90% | 1011.4 hPa | 0 mm | - | 21 W/m² | - |
| 1777548275 | 21.67° C | 90% | 1011.3 hPa | 0 mm | - | 17 W/m² | - |
| 1777547973 | 21.11° C | 91% | 1011.3 hPa | 0 mm | - | 20 W/m² | - |
| 1777547668 | 21.11° C | 92% | 1011.3 hPa | 0 mm | - | 34 W/m² | - |
| 1777547365 | 20.56° C | 92% | 1011.2 hPa | 0 mm | - | 22 W/m² | - |
| 1777547063 | 20.56° C | 93% | 1011.1 hPa | 0 mm | - | 9 W/m² | - |
| 1777546760 | 20.56° C | 93% | 1011.1 hPa | 0 mm | - | 6 W/m² | - |
| 1777546456 | 20.56° C | 93% | 1010.9 hPa | 0 mm | - | 4 W/m² | - |
* Rain latest hour (hover to see other rain measurements)
** Current wind speed in m/s (hover to see current wind gust speed)